Regional Weather Roundup
Issued by NWS Green Bay, WI

Home | Current Version | Previous Version | Text Only | Print | Product List | Glossary On
Versions: 1 2 3 4 5 6 7 8 9 10 11 12 13 14 15 16 17 18 19 20 21 22 23 24 25 26 27 28 29 30 31 32 33 34 35 36 37 38 39 40 41 42 43 44 45 46 47 48 49 50
000
ASUS43 KGRB 251111
RWRGRB

NORTH-CENTRAL AND NORTHEAST WISCONSIN REGIONAL WEATHER ROUNDUP
NATIONAL WEATHER SERVICE GREEN BAY WI
600 AM CDT THU AUG 25 2016

WIZ005-009-010>012-018-019-251200-
NORTH CENTRAL WISCONSIN

CITY           SKY/WX    TMP DP  RH WIND       PRES   REMARKS
IRONWOOD       CLEAR     56  53  90 SW3       29.97R
MANITOWISH WTR FOG       51  51 100 CALM      29.99R VSB 1/4
ARBOR VITAE    CLEAR     54  53  95 S3        30.00R FOG
EAGLE RIVER    CLOUDY    56  56 100 SW3       29.99R
LAND O LAKES   PTCLDY    51  51 100 CALM      29.99S
RHINELANDER    CLOUDY    57  57 100 W5        30.01R
PHILLIPS       CLEAR     56  56  99 CALM      30.00R
ANTIGO         CLOUDY    56  56  99 CALM      30.01S
TOMAHAWK       CLOUDY    54  53  95 CALM      30.02R FOG
MERRILL        CLEAR     57  57 100 CALM      30.02R
$$

WIZ013-073-251200-
NORTHEAST WISCONSIN

CITY           SKY/WX    TMP DP  RH WIND       PRES   REMARKS
IRON MOUNTAIN  CLOUDY    61  56  83 W5        29.95R
MARINETTE      CLOUDY   N/A N/A N/A VRB3      29.95R
OCONTO         CLOUDY    61  59  94 W5        29.95R
$$

WIZ017-030-035>037-045-251200-
CENTRAL WISCONSIN

CITY           SKY/WX    TMP DP  RH WIND       PRES   REMARKS
MEDFORD        CLOUDY    57  57 100 SW3       30.02R
WAUSAU         CLOUDY    60  57  89 NW5       29.99R
MOSINEE        CLEAR     59  57  94 W5        30.02R
MARSHFIELD     CLEAR     59  56  89 W5        30.02R
WISC RAPIDS    CLOUDY    61  59  93 CALM      30.02R
STEVENS POINT  CLOUDY    60  57  91 CALM      30.01S
WAUPACA        CLOUDY    66  62  87 W3        30.00R
SHAWANO        CLOUDY    64  59  83 W7        29.98R
CLINTONVILLE   CLOUDY    63  59  88 NW6       29.98S
WAUTOMA        CLOUDY    63  61  93 W6        30.01R
$$

WIZ038-039-048-051-251200-
FOX VALLEY

CITY           SKY/WX    TMP DP  RH WIND       PRES   REMARKS
NWS GREEN BAY  CLOUDY    64  64 100 W7        29.96S
APPLETON       PTCLDY    63  63 100 W8        29.97R
OSHKOSH        PTCLDY    65  61  87 W8        29.98R
FOND DU LAC    PTCLDY    66  62  87 W7        29.99R
$$

WIZ022-050-052-251200-
EAST CENTRAL WISCONSIN

CITY           SKY/WX    TMP DP  RH WIND       PRES   REMARKS
EPHRAIM        FAIR      64  62  91 NW5       29.93S
WASHINGTON ISL NOT AVBL
STURGEON BAY   CLOUDY    66  62  87 W5        29.95S
MANITOWOC      PTCLDY    67  62  84 CALM      29.97R
SHEBOYGAN      PTCLDY    68  64  87 NW8       29.97R
$$

LMZ563-521-522-541>543-251200-
LAKESHORE

STATION/POSITION TIME  TEMP    WIND        PRES    VSBY  WAVE
                       AIR SEA DIR/SP/G                  HT/PER
                 (UTC) (F)     (DEG/KT/KT) (MB)    (MI)  (FT/S)
SHEBOYGAN LKSHOR 1100   70     290/  7/  8 1013.8R
KEWAUNEE LKSHORE 1000   67     290/  5/  7 1013.5R
NORTHPORT PIER   1000   68     280/  6/ 10 1012.9R
N MID LAKE BUOY  1050   70 69  270/ 10/ 12 1012.5R         2/ 6
SISTER BAY LKSHO 1007   69     300/  9/ 11   N/A
CHAMBERS ISLAND  1000   67     220/  5/  9 1013.2R
MENOMINEE LKSHOR 1000   67     270/  8/ 11 1012.6R
$$




USA.gov is the U.S. government's official web portal to all federal, state and local government web resources and services.